TimeEST,TemperatureF,Dew PointF,Humidity,Sea Level PressureIn,VisibilityMPH,Wind Direction,Wind SpeedMPH,Gust SpeedMPH,PrecipitationIn,Events,Conditions,WindDirDegrees,DateUTC
12:13 AM,37.4,31.5,79,29.93,10.0,West,11.5,17.3,N/A,,Overcast,270,2013-11-26 05:13:00
12:33 AM,37.4,31.1,78,29.93,10.0,West,11.5,20.7,N/A,,Overcast,270,2013-11-26 05:33:00
12:53 AM,37.4,31.1,78,29.93,10.0,West,10.4,20.7,N/A,,Overcast,280,2013-11-26 05:53:00
1:13 AM,37.2,30.7,77,29.93,10.0,West,12.7,20.7,N/A,,Overcast,280,2013-11-26 06:13:00
1:34 AM,37.2,30.7,77,29.93,10.0,West,8.1,17.3,N/A,,Overcast,270,2013-11-26 06:34:00
1:54 AM,37.4,30.7,77,29.92,10.0,West,5.8,-,N/A,,Overcast,280,2013-11-26 06:54:00
2:14 AM,37.4,30.6,76,29.92,10.0,West,6.9,-,N/A,,Overcast,270,2013-11-26 07:14:00
2:34 AM,37.4,30.6,76,29.92,10.0,West,8.1,-,N/A,,Overcast,270,2013-11-26 07:34:00
2:54 AM,37.6,30.2,75,29.92,10.0,West,9.2,-,N/A,,Overcast,270,2013-11-26 07:54:00
3:14 AM,37.6,30.0,74,29.92,10.0,West,9.2,16.1,N/A,,Overcast,280,2013-11-26 08:14:00
3:34 AM,37.4,29.8,74,29.93,10.0,West,8.1,17.3,N/A,,Overcast,280,2013-11-26 08:34:00
3:54 AM,37.6,29.5,73,29.92,10.0,WNW,10.4,-,N/A,,Overcast,290,2013-11-26 08:54:00
4:14 AM,37.4,29.3,73,29.93,10.0,West,10.4,-,N/A,,Overcast,280,2013-11-26 09:14:00
4:34 AM,37.4,29.5,73,29.93,10.0,West,10.4,17.3,N/A,,Overcast,280,2013-11-26 09:34:00
4:54 AM,37.4,29.1,72,29.93,10.0,WNW,12.7,-,N/A,,Overcast,290,2013-11-26 09:54:00
5:14 AM,37.2,29.1,73,29.93,10.0,WNW,6.9,-,N/A,,Overcast,290,2013-11-26 10:14:00
5:34 AM,37.4,28.9,71,29.93,10.0,WNW,6.9,-,N/A,,Overcast,290,2013-11-26 10:34:00
5:55 AM,37.4,28.9,71,29.92,10.0,WNW,10.4,-,N/A,,Overcast,290,2013-11-26 10:55:00
6:15 AM,37.4,29.3,73,29.93,10.0,WNW,11.5,17.3,N/A,,Overcast,290,2013-11-26 11:15:00
6:35 AM,37.0,29.3,74,29.93,10.0,West,9.2,-,N/A,,Overcast,280,2013-11-26 11:35:00
6:55 AM,37.0,28.9,73,29.93,10.0,WNW,8.1,-,N/A,,Overcast,290,2013-11-26 11:55:00
7:15 AM,37.0,28.4,71,29.93,10.0,WNW,12.7,-,N/A,,Overcast,290,2013-11-26 12:15:00
7:35 AM,36.9,28.4,71,29.93,10.0,WNW,12.7,17.3,N/A,,Overcast,290,2013-11-26 12:35:00
7:55 AM,36.7,28.4,72,29.93,10.0,WNW,10.4,-,N/A,,Overcast,290,2013-11-26 12:55:00
8:15 AM,36.1,28.6,74,29.93,10.0,WNW,11.5,-,N/A,,Overcast,290,2013-11-26 13:15:00
8:36 AM,36.0,28.9,76,29.93,10.0,WNW,11.5,16.1,N/A,,Overcast,300,2013-11-26 13:36:00
8:56 AM,36.0,29.3,77,29.94,10.0,West,9.2,-,N/A,,Overcast,280,2013-11-26 13:56:00
9:16 AM,35.8,28.9,76,29.94,10.0,WNW,11.5,-,N/A,,Overcast,290,2013-11-26 14:16:00
9:36 AM,34.9,28.8,78,29.94,10.0,NNW,9.2,16.1,N/A,,Overcast,330,2013-11-26 14:36:00
9:56 AM,34.2,28.4,79,29.94,10.0,NNW,6.9,-,N/A,,Overcast,340,2013-11-26 14:56:00
10:16 AM,34.0,28.2,79,29.94,7.0,North,6.9,-,N/A,Snow,Light Snow,350,2013-11-26 15:16:00
10:36 AM,34.0,28.9,82,29.94,7.0,WNW,9.2,-,N/A,Snow,Light Snow,290,2013-11-26 15:36:00
10:51 AM,32.5,30.2,91,29.94,0.5,NW,6.9,-,N/A,Snow,Snow,320,2013-11-26 15:51:00
11:11 AM,32.0,30.9,96,29.95,0.5,NW,4.6,-,N/A,Snow,Snow,320,2013-11-26 16:11:00
11:31 AM,32.0,30.9,96,29.95,0.5,NW,6.9,-,N/A,Snow,Light Snow,310,2013-11-26 16:31:00
11:52 AM,32.0,30.0,92,29.95,0.8,NW,6.9,-,N/A,Snow,Light Snow,310,2013-11-26 16:52:00
12:12 PM,32.0,29.1,89,29.95,1.5,NW,5.8,10.4,N/A,Snow,Light Snow,320,2013-11-26 17:12:00
12:32 PM,31.8,29.3,90,29.94,0.8,NNW,8.1,-,N/A,Snow,Light Snow,330,2013-11-26 17:32:00
12:52 PM,30.2,27.5,90,29.94,0.8,NW,13.8,23.0,N/A,Snow,Light Snow,320,2013-11-26 17:52:00
1:12 PM,29.3,26.8,90,29.95,0.5,NW,16.1,24.2,N/A,Snow,Snow,320,2013-11-26 18:12:00
1:32 PM,28.9,25.5,87,29.97,1.0,NNW,10.4,19.6,N/A,Snow,Light Snow,330,2013-11-26 18:32:00
1:52 PM,28.9,24.4,83,29.97,2.0,NW,13.8,20.7,N/A,Snow,Light Snow,320,2013-11-26 18:52:00
2:12 PM,28.2,24.6,86,29.97,1.0,NW,13.8,18.4,N/A,Snow,Light Snow,320,2013-11-26 19:12:00
2:32 PM,27.5,25.0,90,29.97,0.5,NNW,9.2,-,N/A,Snow,Snow,330,2013-11-26 19:32:00
2:53 PM,27.5,25.0,90,29.97,0.5,NNW,8.1,-,N/A,Snow,Snow,330,2013-11-26 19:53:00
3:13 PM,28.2,25.7,90,29.98,0.8,NNW,4.6,-,N/A,Snow,Light Snow,330,2013-11-26 20:13:00
3:33 PM,28.0,24.8,88,29.98,0.8,NNW,8.1,-,N/A,Snow,Light Snow,330,2013-11-26 20:33:00
3:53 PM,28.2,22.8,80,29.99,1.8,NNW,9.2,17.3,N/A,Snow,Light Snow,330,2013-11-26 20:53:00
4:13 PM,28.4,21.0,74,29.99,10.0,NNW,12.7,19.6,N/A,Snow,Light Snow,330,2013-11-26 21:13:00
4:33 PM,28.2,20.8,74,30.00,10.0,NNW,10.4,-,N/A,Snow,Light Snow,330,2013-11-26 21:33:00
4:53 PM,28.4,19.4,69,30.00,10.0,NNW,5.8,16.1,N/A,,Overcast,330,2013-11-26 21:53:00
5:13 PM,28.2,19.4,70,30.01,10.0,NW,11.5,16.1,N/A,,Overcast,320,2013-11-26 22:13:00
5:33 PM,28.2,18.7,67,30.01,10.0,NNW,9.2,17.3,N/A,,Overcast,330,2013-11-26 22:33:00
5:54 PM,28.4,16.9,62,30.02,10.0,NNW,5.8,17.3,N/A,,Overcast,330,2013-11-26 22:54:00
6:14 PM,28.4,16.5,61,30.02,10.0,NNW,9.2,23.0,N/A,,Overcast,340,2013-11-26 23:14:00
6:34 PM,28.4,23.0,80,30.03,10.0,NNW,12.7,24.2,N/A,,Overcast,340,2013-11-26 23:34:00
6:54 PM,26.4,23.9,90,30.03,0.5,NNW,10.4,24.2,N/A,Snow,Snow,330,2013-11-26 23:54:00
7:14 PM,25.3,22.8,90,30.04,0.5,NNW,12.7,19.6,N/A,Snow,Snow,340,2013-11-27 00:14:00
7:34 PM,25.9,22.3,86,30.04,1.5,North,8.1,17.3,N/A,Snow,Light Snow,350,2013-11-27 00:34:00
7:54 PM,26.6,20.1,77,30.05,7.0,NNW,11.5,18.4,N/A,Snow,Light Snow,340,2013-11-27 00:54:00
8:14 PM,26.1,19.8,77,30.05,4.0,NNW,11.5,18.4,N/A,Snow,Light Snow,330,2013-11-27 01:14:00
8:34 PM,25.3,17.4,72,30.06,5.0,NNW,11.5,21.9,N/A,Snow,Light Snow,340,2013-11-27 01:34:00
8:54 PM,24.8,15.6,68,30.06,10.0,NNW,12.7,20.7,N/A,,Overcast,330,2013-11-27 01:54:00
9:14 PM,24.4,16.0,70,30.07,10.0,North,17.3,25.3,N/A,,Overcast,350,2013-11-27 02:14:00
9:34 PM,24.1,15.3,69,30.07,10.0,NW,17.3,25.3,N/A,,Overcast,320,2013-11-27 02:34:00
9:55 PM,23.4,14.5,69,30.08,10.0,NNW,12.7,18.4,N/A,,Overcast,340,2013-11-27 02:55:00
10:15 PM,23.0,13.6,67,30.08,10.0,NNW,12.7,21.9,N/A,,Overcast,330,2013-11-27 03:15:00
10:35 PM,22.8,13.1,66,30.09,10.0,NNW,10.4,-,N/A,,Overcast,330,2013-11-27 03:35:00
10:55 PM,22.8,12.6,65,30.09,10.0,NNW,8.1,-,N/A,,Overcast,340,2013-11-27 03:55:00
11:15 PM,23.0,13.3,66,30.08,10.0,NNW,8.1,17.3,N/A,,Overcast,330,2013-11-27 04:15:00
11:35 PM,23.0,13.6,67,30.08,10.0,North,8.1,21.9,N/A,,Overcast,350,2013-11-27 04:35:00
11:55 PM,23.0,14.4,70,30.08,10.0,NNW,9.2,16.1,N/A,Snow,Light Snow,340,2013-11-27 04:55:00